Le nostre stazioni meteo in Italia

Pubblicità
Il mio iltempo24.it
Dunstaffnage, Gran Bretagna (99006): Temperatura & dewpoint: 13.04.2019 16:00:00 - 19.04.2019 16:00:00 (BST)Dunstaffnage, Gran Bretagna (99006): Temperatura -20cm: 13.04.2019 16:00:00 - 19.04.2019 16:00:00 (BST)Dunstaffnage, Gran Bretagna (99006): velocità del vento & gusts: 13.04.2019 16:00:00 - 19.04.2019 16:00:00 (BST)Dunstaffnage, Gran Bretagna (99006): direzione del vento: 13.04.2019 16:00:00 - 19.04.2019 16:00:00 (BST)Dunstaffnage, Gran Bretagna (99006): precipitazioni: 13.04.2019 16:00:00 - 19.04.2019 16:00:00 (BST)
Data & Tempo tt [°C] td [°C] tt -20cm [°C] ff [km/h] ff [kn] fx [km/h] fx [kn] dd rr [mm]
19.04.2019 16:00:00 20,2 5,9 - 15 8 - - S 0,0
19.04.2019 15:00:00 15,9 7,8 - 9 5 - - ONO 0,0
19.04.2019 14:00:00 20,6 7,6 - 16 9 - - S 0,0
19.04.2019 13:00:00 19,3 7,2 - 15 8 - - SE 0,0
19.04.2019 12:00:00 18,6 8,4 - 11 6 - - SSE 0,0
19.04.2019 11:00:00 16,7 7,9 - 15 8 - - ESE 0,0
19.04.2019 10:00:00 14,2 6,2 9,0 21 11 - - E 0,0
19.04.2019 09:00:00 12,5 5,8 - 26 14 - - E 0,0
19.04.2019 08:00:00 11,0 5,0 - 11 6 - - E 0,0
19.04.2019 07:00:00 10,5 4,9 - 18 10 - - E 0,0
19.04.2019 06:00:00 10,3 4,9 - 9 5 - - E 0,0
19.04.2019 05:00:00 11,3 4,6 - 15 8 - - E 0,0
19.04.2019 04:00:00 11,1 4,4 - 13 7 - - ENE 0,0
19.04.2019 03:00:00 11,8 4,0 - 16 9 - - ESE 0,0
19.04.2019 02:00:00 12,5 4,1 - 21 11 - - ESE 0,0
19.04.2019 01:00:00 12,7 4,9 - 16 9 - - SE 0,0
19.04.2019 00:00:00 12,7 5,7 - 11 6 - - ESE 0,0
18.04.2019 23:00:00 13,7 6,8 - 15 8 - - ESE 0,0
18.04.2019 22:00:00 13,8 7,7 - 11 6 - - ESE 0,0
18.04.2019 21:00:00 15,2 8,2 - 11 6 - - ESE 0,0
18.04.2019 20:00:00 16,3 8,4 - 16 9 - - E 0,0
18.04.2019 19:00:00 17,1 8,1 - 15 8 - - ESE 0,0
18.04.2019 18:00:00 17,9 7,7 - 11 6 - - SE 0,0
18.04.2019 17:00:00 17,7 7,6 - 15 8 - - ESE 0,0
18.04.2019 16:00:00 18,0 7,9 - 18 10 - - ESE 0,0
18.04.2019 15:00:00 16,9 7,7 - 26 14 - - E 0,0
18.04.2019 14:00:00 16,6 8,5 - 24 13 - - E 0,0
18.04.2019 13:00:00 15,7 7,6 - 22 12 - - E 0,0
18.04.2019 12:00:00 15,7 6,5 - 21 11 - - ESE 0,0
18.04.2019 11:00:00 15,1 5,4 - 22 12 - - E 0,0
18.04.2019 10:00:00 13,8 6,5 8,2 15 8 - - ESE 0,0
18.04.2019 09:00:00 12,2 5,9 - 18 10 - - SE 0,0
18.04.2019 08:00:00 11,4 5,4 - 15 8 - - ESE 0,0
18.04.2019 07:00:00 10,8 5,0 - 18 10 - - ESE 0,0
18.04.2019 06:00:00 9,4 4,1 - 5 3 - - ENE 0,0
18.04.2019 05:00:00 10,4 3,5 - 13 7 - - ESE 0,0
18.04.2019 04:00:00 8,0 3,1 - 2 1 - - SSE 0,0
18.04.2019 03:00:00 9,0 3,4 - 5 3 - - E 0,0
18.04.2019 02:00:00 10,7 2,7 - 13 7 - - E 0,0
18.04.2019 01:00:00 8,3 3,7 - 5 3 - - E 0,0
18.04.2019 00:00:00 7,9 2,8 - 4 2 - - ESE 0,0
17.04.2019 23:00:00 9,4 4,0 - 4 2 - - SSE 0,0
17.04.2019 22:00:00 11,3 4,3 - 11 6 - - ESE 0,0
17.04.2019 21:00:00 11,9 4,9 - 16 9 - - E 0,0
17.04.2019 20:00:00 13,3 5,2 - 18 10 - - E 0,0
17.04.2019 19:00:00 14,3 5,3 - 18 10 - - ESE 0,0
17.04.2019 18:00:00 14,1 5,6 - 22 12 - - E 0,0
17.04.2019 17:00:00 14,5 5,3 - 21 11 - - ESE 0,0
17.04.2019 16:00:00 14,2 5,0 - 22 12 - - E 0,0
17.04.2019 15:00:00 14,1 5,3 - 28 15 - - E 0,0
17.04.2019 14:00:00 14,0 5,0 - 18 10 - - ESE 0,0
17.04.2019 13:00:00 12,9 4,9 - 29 16 - - E 0,0
17.04.2019 12:00:00 11,9 4,9 - 29 16 - - ESE 0,0
17.04.2019 11:00:00 11,4 3,4 - 22 12 - - ESE 0,0
17.04.2019 10:00:00 10,0 3,2 7,7 21 11 - - E 0,0
17.04.2019 09:00:00 8,8 2,7 - 11 6 - - ESE 0,0
17.04.2019 08:00:00 8,5 2,8 - 18 10 - - ESE 0,0
17.04.2019 07:00:00 8,5 2,4 - 15 8 - - ESE 0,0
17.04.2019 06:00:00 8,5 2,6 - 21 11 - - E 0,0
17.04.2019 05:00:00 8,4 3,1 - 22 12 - - E 0,0
17.04.2019 04:00:00 8,3 3,2 - 26 14 - - E 0,0
17.04.2019 03:00:00 8,3 3,7 - 26 14 - - E 0,0
17.04.2019 02:00:00 8,4 4,0 - 21 11 - - ESE 0,0
17.04.2019 01:00:00 8,4 4,2 - 24 13 - - E 0,0
17.04.2019 00:00:00 8,6 4,5 - 26 14 - - E 0,0
16.04.2019 23:00:00 8,5 4,8 - 22 12 - - E 0,0
16.04.2019 22:00:00 8,4 5,3 - 18 10 - - E 0,0
16.04.2019 21:00:00 8,7 5,3 - 16 9 - - E 0,0
16.04.2019 20:00:00 8,9 5,4 - 18 10 - - E 0,0
16.04.2019 19:00:00 9,4 5,4 - 18 10 - - E 0,0
16.04.2019 18:00:00 9,8 5,3 - 18 10 - - E 0,2
16.04.2019 17:00:00 10,2 5,5 - 21 11 - - E 0,0
16.04.2019 16:00:00 10,2 6,0 - 15 8 - - E 0,0
16.04.2019 15:00:00 9,6 6,8 - 8 4 - - ENE 0,0
16.04.2019 14:00:00 9,1 6,4 - 9 5 - - E 0,0
16.04.2019 13:00:00 10,2 5,1 - 15 8 - - ESE 0,0
16.04.2019 12:00:00 10,8 4,4 - 21 11 - - E 0,0
16.04.2019 11:00:00 10,3 4,6 - 11 6 - - ESE 0,0
16.04.2019 10:00:00 9,6 4,4 7,2 16 9 - - E 0,0
16.04.2019 09:00:00 9,1 4,3 - 4 2 - - SO 0,0
16.04.2019 08:00:00 8,9 3,8 - 16 9 - - ESE 0,0
16.04.2019 07:00:00 8,6 3,5 - 21 11 - - E 0,0
16.04.2019 06:00:00 8,3 3,4 - 16 9 - - E 0,0
16.04.2019 05:00:00 8,2 3,1 - 15 8 - - ESE 0,0
16.04.2019 04:00:00 8,2 2,9 - 13 7 - - E 0,0
16.04.2019 03:00:00 8,2 2,5 - 22 12 55 30 E 0,0
16.04.2019 02:00:00 8,3 2,6 - 39 21 57 31 E 0,0
16.04.2019 01:00:00 8,3 2,4 - 29 16 55 30 E 0,0
16.04.2019 00:00:00 8,4 2,4 - 31 17 67 36 E 0,0
15.04.2019 23:00:00 8,6 2,6 - 35 19 65 35 E 0,0
15.04.2019 22:00:00 9,0 2,6 - 39 21 67 36 E 0,0
15.04.2019 21:00:00 9,3 2,5 - 41 22 61 33 E 0,0
15.04.2019 20:00:00 9,6 2,4 - 37 20 55 30 E 0,0
15.04.2019 19:00:00 10,0 2,3 - 39 21 65 35 E 0,0
15.04.2019 18:00:00 10,0 2,1 - 35 19 70 38 E 0,0
15.04.2019 17:00:00 10,0 1,1 - 39 21 68 37 E 0,0
15.04.2019 16:00:00 10,5 -0,2 - 39 21 67 36 E 0,0
15.04.2019 15:00:00 10,1 0,2 - 41 22 67 36 E 0,0
15.04.2019 14:00:00 10,0 0,5 - 37 20 68 37 E 0,0
15.04.2019 13:00:00 9,7 0,8 - 35 19 61 33 E 0,0
15.04.2019 12:00:00 8,5 0,4 - 39 21 67 36 E 0,0
15.04.2019 11:00:00 7,9 0,6 - 31 17 50 27 E 0,0
15.04.2019 10:00:00 6,7 0,2 6,9 35 19 54 29 E 0,0
15.04.2019 09:00:00 6,0 0,0 - 31 17 50 27 E 0,0
15.04.2019 08:00:00 5,3 -0,2 - 24 13 - - E 0,0
15.04.2019 07:00:00 4,7 -0,2 - 22 12 - - E 0,0
15.04.2019 06:00:00 4,8 -0,1 - 21 11 - - E 0,0
15.04.2019 05:00:00 4,5 -0,5 - 13 7 - - E 0,0
15.04.2019 04:00:00 4,3 -0,5 - 18 10 - - E 0,0
15.04.2019 03:00:00 4,7 -0,4 - 16 9 - - E 0,0
15.04.2019 02:00:00 5,4 -0,4 - 13 7 - - E 0,0
15.04.2019 01:00:00 5,8 -0,1 - 21 11 - - E 0,0
15.04.2019 00:00:00 5,7 -0,8 - 18 10 - - E 0,0
14.04.2019 23:00:00 6,2 -0,6 - 21 11 - - E 0,0
14.04.2019 22:00:00 6,8 0,0 - 18 10 - - E 0,0
14.04.2019 21:00:00 7,4 0,3 - 21 11 - - E 0,0
14.04.2019 20:00:00 7,7 1,0 - 24 13 - - E 0,0
14.04.2019 19:00:00 8,5 0,2 - 26 14 52 28 ESE 0,0
14.04.2019 18:00:00 9,1 0,3 - 18 10 - - ESE 0,0
14.04.2019 17:00:00 9,0 0,1 - 18 10 - - ESE 0,0
14.04.2019 16:00:00 8,8 -0,7 - 24 13 46 25 E 0,0
14.04.2019 15:00:00 9,3 -1,8 - 26 14 46 25 ESE 0,0
14.04.2019 14:00:00 8,9 -1,3 - 31 17 52 28 E 0,0
14.04.2019 13:00:00 9,6 -1,4 - 28 15 57 31 ESE 0,0
14.04.2019 12:00:00 7,9 -2,7 - 24 13 55 30 ESE 0,0
14.04.2019 11:00:00 6,9 -2,7 - 29 16 50 27 ESE 0,0
14.04.2019 10:00:00 6,3 -2,4 6,9 31 17 61 33 ESE 0,0
14.04.2019 09:00:00 5,4 -1,9 - 41 22 65 35 E 0,0
14.04.2019 08:00:00 5,0 -1,7 - 29 16 48 26 E 0,0
14.04.2019 07:00:00 4,1 -1,8 - 22 12 - - E 0,0
14.04.2019 06:00:00 3,8 -1,8 - 22 12 - - E 0,0
14.04.2019 05:00:00 3,5 -2,4 - 16 9 - - E 0,0
14.04.2019 04:00:00 3,8 -2,3 - 18 10 - - ESE 0,0
14.04.2019 03:00:00 4,0 -2,5 - 22 12 - - E 0,0
14.04.2019 02:00:00 4,3 -2,3 - 21 11 - - E 0,0
14.04.2019 01:00:00 4,6 -2,4 - 24 13 - - E 0,0
14.04.2019 00:00:00 5,2 -2,2 - 21 11 - - E 0,0
13.04.2019 23:00:00 5,8 -2,6 - 18 10 - - E 0,0
13.04.2019 22:00:00 6,5 -2,7 - 21 11 - - E 0,0
13.04.2019 21:00:00 7,5 -2,5 - 22 12 - - E 0,0
13.04.2019 20:00:00 8,8 -3,0 - 28 15 48 26 E 0,0
13.04.2019 19:00:00 9,6 -2,9 - 28 15 52 28 E 0,0
13.04.2019 18:00:00 10,4 -2,8 - 26 14 57 31 ESE 0,0
13.04.2019 17:00:00 11,2 -1,3 - 24 13 54 29 ESE 0,0
13.04.2019 16:00:00 11,4 -0,5 - 21 11 52 28 ESE 0,0

tt = Temperatura
td = dewpoint
tt -20cm = Temperatura -20cm
ff = velocità del vento
fx = gusts
dd = direzione del vento
rr = precipitazioni

Stazioni seguenti

WeatherPro
AMSI
MeteoEarth